星链-3739 (STARLINK-3739 )

导读

STARLINK-3739是美国太空探索技术公司(SpaceX)星链星座的成员,于2022年4月21日发射入轨,属于星链互联网卫星星座的组网卫星,主要用于为全球提供低延迟、高速率的卫星互联网接入服务,通过部署在近地轨道,补足地面网络覆盖盲区,支撑全球互联场景。

Basic Information
目录编号:
52266
目录名称:
STARLINK-3739
国际标识:
2022-041F
轨道中心:
EARTH
卫星名称:
星链-3739
卫星全名:
星链-3739 (STARLINK-3739 )
卫星状态:
在轨 (已飞行1605 天)
发射日期:
2022-04-21 UTC
国别 :
美国 (US)
星等 :
--
This satellite is enrolled in the Space Conjunction Data Service (SCDS) and the current flight risk assessment level is: No High Risk
Orbit Information
数据来源 国际轨道数据 AOE轨道数据
星历时间 2026-09-12T07:57:50+0800
8小时前
查看轨道信息
2026-09-10T12:00:00+0800
2天前
查看轨道信息
半长轴 6909.259km 6909.456km
偏心率 0.0000982 0.00009
轨道倾角 53.214° 53.213°
近地点辐角 116.760° 90.822°
升交点赤经 351.651° 359.911°
平近点角 243.349° 15.239°
近地点 530.443km 530.697km
远地点 531.801km 531.941km
周期 95.259分钟 95.263分钟
每日圈数 15.116652 15.116005
Detailed Information
固有亮度:
5
最大亮度:
2.5
卫星平台:
Starlink v1.5
覆盖范围:
全球
运营商:
太空探索技术公司
运营商所在国:
美国
制造商(研发单位):
太空探索技术公司
制造商所在国:
美国
使用方式:
暂无
Satellite Introduction
星链(Starlink)计划是由太空探索技术公司(SpaceX)提出的一个巨型低轨卫星互联网星座项目,计划在2019年至2024年间在太空搭建由约1.2万颗卫星组成的“星链”网络,其中1584颗将部署在地球上空550千米处的近地轨道,并从2020年开始工作。该卫星仍在工作。
2D Orbit Map
3D Orbit Map
Orbit Altitude Analysis Chart
Orbit Inclination Analysis Chart
Orbit Comprehensive Analysis Chart
View Comprehensive Chart
Conjunction Data List
Event ID Objects TCA Miss Dist (km) Collision Risk Probability Collision Risk Index (CRI) Action
CDM_260913-093205-226606-329122
OBJECT A (63291)
2026-09-13T
09:32:34+0000
2.600 km
极远距离
1.164106E-6 低风险 0.36
Miss Distance Evolution Trend with All Objects
Collision Probability Evolution Trend with All Objects